<?xml version="1.0" encoding="UTF-8" standalone="yes"?>
<gpx version="1.1" creator="MagicMaps Tour Explorer"
     xmlns:xsi="http://www.w3.org/2001/XMLSchema-instance"
     xmlns="http://www.topografix.com/GPX/1/1">
  <trk>
    <name>rosengarten_w</name>
    <trkseg>
      <trkpt lat="46.433481000" lon="11.665068000">
        <ele>1995.4</ele>
        <time>1970-01-01T01:00:00</time>
      </trkpt>
      <trkpt lat="46.433499000" lon="11.665076000">
        <ele>1995.8</ele>
        <time>1970-01-01T01:00:00</time>
      </trkpt>
      <trkpt lat="46.433780000" lon="11.664711000">
        <ele>1996.8</ele>
        <time>1970-01-01T01:00:00</time>
      </trkpt>
      <trkpt lat="46.433909000" lon="11.664413000">
        <ele>1996.8</ele>
        <time>1970-01-01T01:00:00</time>
      </trkpt>
      <trkpt lat="46.434052000" lon="11.663846000">
        <ele>1994.9</ele>
        <time>1970-01-01T01:00:00</time>
      </trkpt>
      <trkpt lat="46.434101000" lon="11.663389000">
        <ele>1988.6</ele>
        <time>1970-01-01T01:00:00</time>
      </trkpt>
      <trkpt lat="46.434358000" lon="11.662638000">
        <ele>1976.6</ele>
        <time>1970-01-01T01:00:00</time>
      </trkpt>
      <trkpt lat="46.434303000" lon="11.662197000">
        <ele>1971.8</ele>
        <time>1970-01-01T01:00:00</time>
      </trkpt>
      <trkpt lat="46.434102000" lon="11.661486000">
        <ele>1960.7</ele>
        <time>1970-01-01T01:00:00</time>
      </trkpt>
      <trkpt lat="46.434103000" lon="11.660990000">
        <ele>1954.5</ele>
        <time>1970-01-01T01:00:00</time>
      </trkpt>
      <trkpt lat="46.434239000" lon="11.660557000">
        <ele>1947.8</ele>
        <time>1970-01-01T01:00:00</time>
      </trkpt>
      <trkpt lat="46.434464000" lon="11.660161000">
        <ele>1942.5</ele>
        <time>1970-01-01T01:00:00</time>
      </trkpt>
      <trkpt lat="46.435278000" lon="11.660468000">
        <ele>1912.2</ele>
        <time>1970-01-01T01:00:00</time>
      </trkpt>
      <trkpt lat="46.435369000" lon="11.660676000">
        <ele>1903.1</ele>
        <time>1970-01-01T01:00:00</time>
      </trkpt>
      <trkpt lat="46.435658000" lon="11.660804000">
        <ele>1892.0</ele>
        <time>1970-01-01T01:00:00</time>
      </trkpt>
      <trkpt lat="46.435971000" lon="11.661186000">
        <ele>1876.6</ele>
        <time>1970-01-01T01:00:00</time>
      </trkpt>
      <trkpt lat="46.436279000" lon="11.661477000">
        <ele>1857.9</ele>
        <time>1970-01-01T01:00:00</time>
      </trkpt>
      <trkpt lat="46.436760000" lon="11.661716000">
        <ele>1843.0</ele>
        <time>1970-01-01T01:00:00</time>
      </trkpt>
      <trkpt lat="46.437007000" lon="11.661936000">
        <ele>1833.4</ele>
        <time>1970-01-01T01:00:00</time>
      </trkpt>
      <trkpt lat="46.437438000" lon="11.662198000">
        <ele>1822.3</ele>
        <time>1970-01-01T01:00:00</time>
      </trkpt>
      <trkpt lat="46.437832000" lon="11.662509000">
        <ele>1814.1</ele>
        <time>1970-01-01T01:00:00</time>
      </trkpt>
      <trkpt lat="46.438772000" lon="11.662911000">
        <ele>1802.6</ele>
        <time>1970-01-01T01:00:00</time>
      </trkpt>
      <trkpt lat="46.438906000" lon="11.662896000">
        <ele>1801.6</ele>
        <time>1970-01-01T01:00:00</time>
      </trkpt>
      <trkpt lat="46.438964000" lon="11.662761000">
        <ele>1802.6</ele>
        <time>1970-01-01T01:00:00</time>
      </trkpt>
      <trkpt lat="46.438911000" lon="11.662653000">
        <ele>1802.6</ele>
        <time>1970-01-01T01:00:00</time>
      </trkpt>
      <trkpt lat="46.436140000" lon="11.658928000">
        <ele>1902.1</ele>
        <time>1970-01-01T01:00:00</time>
      </trkpt>
      <trkpt lat="46.434666000" lon="11.656879000">
        <ele>2026.6</ele>
        <time>1970-01-01T01:00:00</time>
      </trkpt>
      <trkpt lat="46.433767000" lon="11.655663000">
        <ele>2089.6</ele>
        <time>1970-01-01T01:00:00</time>
      </trkpt>
      <trkpt lat="46.433509000" lon="11.655305000">
        <ele>2099.7</ele>
        <time>1970-01-01T01:00:00</time>
      </trkpt>
      <trkpt lat="46.433330000" lon="11.654989000">
        <ele>2100.1</ele>
        <time>1970-01-01T01:00:00</time>
      </trkpt>
      <trkpt lat="46.433222000" lon="11.655092000">
        <ele>2100.1</ele>
        <time>1970-01-01T01:00:00</time>
      </trkpt>
      <trkpt lat="46.433256000" lon="11.655250000">
        <ele>2098.7</ele>
        <time>1970-01-01T01:00:00</time>
      </trkpt>
      <trkpt lat="46.433425000" lon="11.655409000">
        <ele>2094.9</ele>
        <time>1970-01-01T01:00:00</time>
      </trkpt>
      <trkpt lat="46.433593000" lon="11.655474000">
        <ele>2088.1</ele>
        <time>1970-01-01T01:00:00</time>
      </trkpt>
      <trkpt lat="46.433777000" lon="11.655305000">
        <ele>2083.8</ele>
        <time>1970-01-01T01:00:00</time>
      </trkpt>
      <trkpt lat="46.434009000" lon="11.654769000">
        <ele>2073.2</ele>
        <time>1970-01-01T01:00:00</time>
      </trkpt>
      <trkpt lat="46.434024000" lon="11.654278000">
        <ele>2067.9</ele>
        <time>1970-01-01T01:00:00</time>
      </trkpt>
      <trkpt lat="46.433831000" lon="11.653647000">
        <ele>2061.2</ele>
        <time>1970-01-01T01:00:00</time>
      </trkpt>
      <trkpt lat="46.433574000" lon="11.653159000">
        <ele>2054.0</ele>
        <time>1970-01-01T01:00:00</time>
      </trkpt>
      <trkpt lat="46.433351000" lon="11.652595000">
        <ele>2049.2</ele>
        <time>1970-01-01T01:00:00</time>
      </trkpt>
      <trkpt lat="46.433199000" lon="11.651884000">
        <ele>2041.0</ele>
        <time>1970-01-01T01:00:00</time>
      </trkpt>
      <trkpt lat="46.433176000" lon="11.651544000">
        <ele>2039.6</ele>
        <time>1970-01-01T01:00:00</time>
      </trkpt>
      <trkpt lat="46.433266000" lon="11.651273000">
        <ele>2036.7</ele>
        <time>1970-01-01T01:00:00</time>
      </trkpt>
      <trkpt lat="46.433598000" lon="11.650783000">
        <ele>2032.4</ele>
        <time>1970-01-01T01:00:00</time>
      </trkpt>
      <trkpt lat="46.433870000" lon="11.650506000">
        <ele>2029.0</ele>
        <time>1970-01-01T01:00:00</time>
      </trkpt>
      <trkpt lat="46.434055000" lon="11.650392000">
        <ele>2028.0</ele>
        <time>1970-01-01T01:00:00</time>
      </trkpt>
      <trkpt lat="46.434383000" lon="11.649923000">
        <ele>2024.7</ele>
        <time>1970-01-01T01:00:00</time>
      </trkpt>
      <trkpt lat="46.434558000" lon="11.649393000">
        <ele>2022.3</ele>
        <time>1970-01-01T01:00:00</time>
      </trkpt>
      <trkpt lat="46.434965000" lon="11.649077000">
        <ele>2017.5</ele>
        <time>1970-01-01T01:00:00</time>
      </trkpt>
      <trkpt lat="46.435473000" lon="11.648996000">
        <ele>2011.7</ele>
        <time>1970-01-01T01:00:00</time>
      </trkpt>
      <trkpt lat="46.436247000" lon="11.648735000">
        <ele>2005.4</ele>
        <time>1970-01-01T01:00:00</time>
      </trkpt>
      <trkpt lat="46.436551000" lon="11.648850000">
        <ele>2001.1</ele>
        <time>1970-01-01T01:00:00</time>
      </trkpt>
      <trkpt lat="46.436981000" lon="11.649422000">
        <ele>1990.1</ele>
        <time>1970-01-01T01:00:00</time>
      </trkpt>
      <trkpt lat="46.437151000" lon="11.649991000">
        <ele>1977.1</ele>
        <time>1970-01-01T01:00:00</time>
      </trkpt>
      <trkpt lat="46.437223000" lon="11.650033000">
        <ele>1976.1</ele>
        <time>1970-01-01T01:00:00</time>
      </trkpt>
      <trkpt lat="46.437316000" lon="11.649982000">
        <ele>1975.6</ele>
        <time>1970-01-01T01:00:00</time>
      </trkpt>
      <trkpt lat="46.437472000" lon="11.649774000">
        <ele>1974.2</ele>
        <time>1970-01-01T01:00:00</time>
      </trkpt>
      <trkpt lat="46.437845000" lon="11.649578000">
        <ele>1971.8</ele>
        <time>1970-01-01T01:00:00</time>
      </trkpt>
      <trkpt lat="46.438140000" lon="11.649517000">
        <ele>1971.8</ele>
        <time>1970-01-01T01:00:00</time>
      </trkpt>
      <trkpt lat="46.438421000" lon="11.649177000">
        <ele>1969.4</ele>
        <time>1970-01-01T01:00:00</time>
      </trkpt>
      <trkpt lat="46.438775000" lon="11.648144000">
        <ele>1967.0</ele>
        <time>1970-01-01T01:00:00</time>
      </trkpt>
      <trkpt lat="46.439119000" lon="11.647570000">
        <ele>1958.3</ele>
        <time>1970-01-01T01:00:00</time>
      </trkpt>
      <trkpt lat="46.439319000" lon="11.647279000">
        <ele>1959.8</ele>
        <time>1970-01-01T01:00:00</time>
      </trkpt>
      <trkpt lat="46.439363000" lon="11.647115000">
        <ele>1960.3</ele>
        <time>1970-01-01T01:00:00</time>
      </trkpt>
      <trkpt lat="46.439284000" lon="11.646639000">
        <ele>1963.1</ele>
        <time>1970-01-01T01:00:00</time>
      </trkpt>
      <trkpt lat="46.439379000" lon="11.646350000">
        <ele>1963.1</ele>
        <time>1970-01-01T01:00:00</time>
      </trkpt>
      <trkpt lat="46.439618000" lon="11.646271000">
        <ele>1965.6</ele>
        <time>1970-01-01T01:00:00</time>
      </trkpt>
      <trkpt lat="46.440105000" lon="11.646000000">
        <ele>1969.9</ele>
        <time>1970-01-01T01:00:00</time>
      </trkpt>
      <trkpt lat="46.440716000" lon="11.646002000">
        <ele>1973.7</ele>
        <time>1970-01-01T01:00:00</time>
      </trkpt>
      <trkpt lat="46.441044000" lon="11.645758000">
        <ele>1975.2</ele>
        <time>1970-01-01T01:00:00</time>
      </trkpt>
      <trkpt lat="46.441499000" lon="11.644919000">
        <ele>1974.2</ele>
        <time>1970-01-01T01:00:00</time>
      </trkpt>
      <trkpt lat="46.441783000" lon="11.644100000">
        <ele>1970.4</ele>
        <time>1970-01-01T01:00:00</time>
      </trkpt>
      <trkpt lat="46.442083000" lon="11.643635000">
        <ele>1965.6</ele>
        <time>1970-01-01T01:00:00</time>
      </trkpt>
      <trkpt lat="46.442552000" lon="11.643349000">
        <ele>1963.1</ele>
        <time>1970-01-01T01:00:00</time>
      </trkpt>
      <trkpt lat="46.442645000" lon="11.643049000">
        <ele>1961.7</ele>
        <time>1970-01-01T01:00:00</time>
      </trkpt>
      <trkpt lat="46.442860000" lon="11.642736000">
        <ele>1960.3</ele>
        <time>1970-01-01T01:00:00</time>
      </trkpt>
      <trkpt lat="46.443258000" lon="11.641894000">
        <ele>1955.0</ele>
        <time>1970-01-01T01:00:00</time>
      </trkpt>
      <trkpt lat="46.443367000" lon="11.641416000">
        <ele>1954.0</ele>
        <time>1970-01-01T01:00:00</time>
      </trkpt>
      <trkpt lat="46.443448000" lon="11.641318000">
        <ele>1953.5</ele>
        <time>1970-01-01T01:00:00</time>
      </trkpt>
      <trkpt lat="46.443637000" lon="11.641291000">
        <ele>1953.5</ele>
        <time>1970-01-01T01:00:00</time>
      </trkpt>
      <trkpt lat="46.443845000" lon="11.640886000">
        <ele>1954.5</ele>
        <time>1970-01-01T01:00:00</time>
      </trkpt>
      <trkpt lat="46.443942000" lon="11.640865000">
        <ele>1955.0</ele>
        <time>1970-01-01T01:00:00</time>
      </trkpt>
      <trkpt lat="46.444076000" lon="11.640964000">
        <ele>1957.4</ele>
        <time>1970-01-01T01:00:00</time>
      </trkpt>
      <trkpt lat="46.444244000" lon="11.640960000">
        <ele>1957.9</ele>
        <time>1970-01-01T01:00:00</time>
      </trkpt>
      <trkpt lat="46.444438000" lon="11.640761000">
        <ele>1958.3</ele>
        <time>1970-01-01T01:00:00</time>
      </trkpt>
      <trkpt lat="46.444683000" lon="11.640802000">
        <ele>1959.3</ele>
        <time>1970-01-01T01:00:00</time>
      </trkpt>
      <trkpt lat="46.445002000" lon="11.640441000">
        <ele>1961.7</ele>
        <time>1970-01-01T01:00:00</time>
      </trkpt>
      <trkpt lat="46.445142000" lon="11.640375000">
        <ele>1959.8</ele>
        <time>1970-01-01T01:00:00</time>
      </trkpt>
      <trkpt lat="46.445399000" lon="11.640537000">
        <ele>1959.3</ele>
        <time>1970-01-01T01:00:00</time>
      </trkpt>
      <trkpt lat="46.445716000" lon="11.640613000">
        <ele>1958.3</ele>
        <time>1970-01-01T01:00:00</time>
      </trkpt>
      <trkpt lat="46.445963000" lon="11.640763000">
        <ele>1958.8</ele>
        <time>1970-01-01T01:00:00</time>
      </trkpt>
      <trkpt lat="46.446449000" lon="11.640429000">
        <ele>1957.4</ele>
        <time>1970-01-01T01:00:00</time>
      </trkpt>
      <trkpt lat="46.447056000" lon="11.639916000">
        <ele>1951.6</ele>
        <time>1970-01-01T01:00:00</time>
      </trkpt>
      <trkpt lat="46.447088000" lon="11.639910000">
        <ele>1951.6</ele>
        <time>1970-01-01T01:00:00</time>
      </trkpt>
      <trkpt lat="46.447068000" lon="11.639938000">
        <ele>1945.4</ele>
        <time>1970-01-01T01:00:00</time>
      </trkpt>
      <trkpt lat="46.447113000" lon="11.639953000">
        <ele>1948.2</ele>
        <time>1970-01-01T01:00:00</time>
      </trkpt>
      <trkpt lat="46.447056000" lon="11.639904000">
        <ele>1948.7</ele>
        <time>1970-01-01T01:00:00</time>
      </trkpt>
      <trkpt lat="46.447088000" lon="11.640000000">
        <ele>1951.1</ele>
        <time>1970-01-01T01:00:00</time>
      </trkpt>
      <trkpt lat="46.447377000" lon="11.639880000">
        <ele>1955.5</ele>
        <time>1970-01-01T01:00:00</time>
      </trkpt>
      <trkpt lat="46.447678000" lon="11.639564000">
        <ele>1959.3</ele>
        <time>1970-01-01T01:00:00</time>
      </trkpt>
      <trkpt lat="46.448078000" lon="11.638761000">
        <ele>1967.0</ele>
        <time>1970-01-01T01:00:00</time>
      </trkpt>
      <trkpt lat="46.448637000" lon="11.638275000">
        <ele>1975.2</ele>
        <time>1970-01-01T01:00:00</time>
      </trkpt>
      <trkpt lat="46.448957000" lon="11.637868000">
        <ele>1982.4</ele>
        <time>1970-01-01T01:00:00</time>
      </trkpt>
      <trkpt lat="46.449021000" lon="11.637371000">
        <ele>1993.9</ele>
        <time>1970-01-01T01:00:00</time>
      </trkpt>
      <trkpt lat="46.448933000" lon="11.637105000">
        <ele>1998.7</ele>
        <time>1970-01-01T01:00:00</time>
      </trkpt>
      <trkpt lat="46.449292000" lon="11.637185000">
        <ele>2004.5</ele>
        <time>1970-01-01T01:00:00</time>
      </trkpt>
      <trkpt lat="46.449372000" lon="11.637500000">
        <ele>2010.7</ele>
        <time>1970-01-01T01:00:00</time>
      </trkpt>
      <trkpt lat="46.449481000" lon="11.637341000">
        <ele>2016.5</ele>
        <time>1970-01-01T01:00:00</time>
      </trkpt>
      <trkpt lat="46.449662000" lon="11.637259000">
        <ele>2022.3</ele>
        <time>1970-01-01T01:00:00</time>
      </trkpt>
      <trkpt lat="46.449878000" lon="11.637078000">
        <ele>2027.1</ele>
        <time>1970-01-01T01:00:00</time>
      </trkpt>
      <trkpt lat="46.450297000" lon="11.636955000">
        <ele>2030.4</ele>
        <time>1970-01-01T01:00:00</time>
      </trkpt>
      <trkpt lat="46.450713000" lon="11.636708000">
        <ele>2034.8</ele>
        <time>1970-01-01T01:00:00</time>
      </trkpt>
      <trkpt lat="46.450770000" lon="11.636604000">
        <ele>2036.2</ele>
        <time>1970-01-01T01:00:00</time>
      </trkpt>
      <trkpt lat="46.451221000" lon="11.636283000">
        <ele>2040.1</ele>
        <time>1970-01-01T01:00:00</time>
      </trkpt>
      <trkpt lat="46.451562000" lon="11.636102000">
        <ele>2041.5</ele>
        <time>1970-01-01T01:00:00</time>
      </trkpt>
      <trkpt lat="46.452298000" lon="11.635113000">
        <ele>2051.6</ele>
        <time>1970-01-01T01:00:00</time>
      </trkpt>
      <trkpt lat="46.452626000" lon="11.634584000">
        <ele>2057.4</ele>
        <time>1970-01-01T01:00:00</time>
      </trkpt>
      <trkpt lat="46.452844000" lon="11.634331000">
        <ele>2061.7</ele>
        <time>1970-01-01T01:00:00</time>
      </trkpt>
      <trkpt lat="46.453577000" lon="11.633905000">
        <ele>2073.2</ele>
        <time>1970-01-01T01:00:00</time>
      </trkpt>
      <trkpt lat="46.454171000" lon="11.633725000">
        <ele>2081.9</ele>
        <time>1970-01-01T01:00:00</time>
      </trkpt>
      <trkpt lat="46.454387000" lon="11.633782000">
        <ele>2084.8</ele>
        <time>1970-01-01T01:00:00</time>
      </trkpt>
      <trkpt lat="46.454552000" lon="11.633767000">
        <ele>2086.2</ele>
        <time>1970-01-01T01:00:00</time>
      </trkpt>
      <trkpt lat="46.454786000" lon="11.633681000">
        <ele>2090.0</ele>
        <time>1970-01-01T01:00:00</time>
      </trkpt>
      <trkpt lat="46.454981000" lon="11.633681000">
        <ele>2093.4</ele>
        <time>1970-01-01T01:00:00</time>
      </trkpt>
      <trkpt lat="46.455436000" lon="11.633552000">
        <ele>2104.0</ele>
        <time>1970-01-01T01:00:00</time>
      </trkpt>
      <trkpt lat="46.455526000" lon="11.633569000">
        <ele>2105.9</ele>
        <time>1970-01-01T01:00:00</time>
      </trkpt>
      <trkpt lat="46.455773000" lon="11.633361000">
        <ele>2110.7</ele>
        <time>1970-01-01T01:00:00</time>
      </trkpt>
      <trkpt lat="46.455936000" lon="11.633372000">
        <ele>2113.6</ele>
        <time>1970-01-01T01:00:00</time>
      </trkpt>
      <trkpt lat="46.456169000" lon="11.633211000">
        <ele>2120.8</ele>
        <time>1970-01-01T01:00:00</time>
      </trkpt>
      <trkpt lat="46.456304000" lon="11.632978000">
        <ele>2126.1</ele>
        <time>1970-01-01T01:00:00</time>
      </trkpt>
      <trkpt lat="46.456324000" lon="11.632765000">
        <ele>2131.4</ele>
        <time>1970-01-01T01:00:00</time>
      </trkpt>
      <trkpt lat="46.456510000" lon="11.632492000">
        <ele>2139.1</ele>
        <time>1970-01-01T01:00:00</time>
      </trkpt>
      <trkpt lat="46.456648000" lon="11.631969000">
        <ele>2150.1</ele>
        <time>1970-01-01T01:00:00</time>
      </trkpt>
      <trkpt lat="46.456850000" lon="11.631663000">
        <ele>2160.2</ele>
        <time>1970-01-01T01:00:00</time>
      </trkpt>
      <trkpt lat="46.456898000" lon="11.631352000">
        <ele>2170.3</ele>
        <time>1970-01-01T01:00:00</time>
      </trkpt>
      <trkpt lat="46.456938000" lon="11.631305000">
        <ele>2173.7</ele>
        <time>1970-01-01T01:00:00</time>
      </trkpt>
      <trkpt lat="46.457063000" lon="11.630903000">
        <ele>2186.7</ele>
        <time>1970-01-01T01:00:00</time>
      </trkpt>
      <trkpt lat="46.457197000" lon="11.630928000">
        <ele>2190.5</ele>
        <time>1970-01-01T01:00:00</time>
      </trkpt>
      <trkpt lat="46.457197000" lon="11.631146000">
        <ele>2194.8</ele>
        <time>1970-01-01T01:00:00</time>
      </trkpt>
      <trkpt lat="46.457268000" lon="11.631264000">
        <ele>2195.8</ele>
        <time>1970-01-01T01:00:00</time>
      </trkpt>
      <trkpt lat="46.457496000" lon="11.631173000">
        <ele>2204.0</ele>
        <time>1970-01-01T01:00:00</time>
      </trkpt>
      <trkpt lat="46.457837000" lon="11.631365000">
        <ele>2215.5</ele>
        <time>1970-01-01T01:00:00</time>
      </trkpt>
      <trkpt lat="46.457932000" lon="11.631457000">
        <ele>2217.4</ele>
        <time>1970-01-01T01:00:00</time>
      </trkpt>
      <trkpt lat="46.458003000" lon="11.631641000">
        <ele>2222.2</ele>
        <time>1970-01-01T01:00:00</time>
      </trkpt>
      <trkpt lat="46.457980000" lon="11.631901000">
        <ele>2227.0</ele>
        <time>1970-01-01T01:00:00</time>
      </trkpt>
      <trkpt lat="46.458072000" lon="11.631840000">
        <ele>2230.4</ele>
        <time>1970-01-01T01:00:00</time>
      </trkpt>
      <trkpt lat="46.458160000" lon="11.631712000">
        <ele>2233.3</ele>
        <time>1970-01-01T01:00:00</time>
      </trkpt>
      <trkpt lat="46.458277000" lon="11.631417000">
        <ele>2241.0</ele>
        <time>1970-01-01T01:00:00</time>
      </trkpt>
      <trkpt lat="46.458576000" lon="11.631826000">
        <ele>2250.6</ele>
        <time>1970-01-01T01:00:00</time>
      </trkpt>
      <trkpt lat="46.458796000" lon="11.631880000">
        <ele>2258.3</ele>
        <time>1970-01-01T01:00:00</time>
      </trkpt>
      <trkpt lat="46.458871000" lon="11.632099000">
        <ele>2263.1</ele>
        <time>1970-01-01T01:00:00</time>
      </trkpt>
      <trkpt lat="46.459029000" lon="11.632228000">
        <ele>2266.4</ele>
        <time>1970-01-01T01:00:00</time>
      </trkpt>
      <trkpt lat="46.459155000" lon="11.632145000">
        <ele>2266.9</ele>
        <time>1970-01-01T01:00:00</time>
      </trkpt>
      <trkpt lat="46.459069000" lon="11.632209000">
        <ele>2268.4</ele>
        <time>1970-01-01T01:00:00</time>
      </trkpt>
      <trkpt lat="46.459226000" lon="11.632182000">
        <ele>2270.3</ele>
        <time>1970-01-01T01:00:00</time>
      </trkpt>
      <trkpt lat="46.459389000" lon="11.632298000">
        <ele>2269.3</ele>
        <time>1970-01-01T01:00:00</time>
      </trkpt>
      <trkpt lat="46.459915000" lon="11.632254000">
        <ele>2270.3</ele>
        <time>1970-01-01T01:00:00</time>
      </trkpt>
      <trkpt lat="46.460535000" lon="11.632281000">
        <ele>2274.6</ele>
        <time>1970-01-01T01:00:00</time>
      </trkpt>
      <trkpt lat="46.460689000" lon="11.632213000">
        <ele>2273.2</ele>
        <time>1970-01-01T01:00:00</time>
      </trkpt>
      <trkpt lat="46.460887000" lon="11.632193000">
        <ele>2272.7</ele>
        <time>1970-01-01T01:00:00</time>
      </trkpt>
      <trkpt lat="46.461325000" lon="11.632418000">
        <ele>2274.1</ele>
        <time>1970-01-01T01:00:00</time>
      </trkpt>
      <trkpt lat="46.461428000" lon="11.632525000">
        <ele>2275.1</ele>
        <time>1970-01-01T01:00:00</time>
      </trkpt>
      <trkpt lat="46.461486000" lon="11.632644000">
        <ele>2278.0</ele>
        <time>1970-01-01T01:00:00</time>
      </trkpt>
      <trkpt lat="46.461892000" lon="11.632731000">
        <ele>2281.3</ele>
        <time>1970-01-01T01:00:00</time>
      </trkpt>
      <trkpt lat="46.462028000" lon="11.632812000">
        <ele>2284.7</ele>
        <time>1970-01-01T01:00:00</time>
      </trkpt>
      <trkpt lat="46.462635000" lon="11.632995000">
        <ele>2288.1</ele>
        <time>1970-01-01T01:00:00</time>
      </trkpt>
      <trkpt lat="46.462909000" lon="11.632790000">
        <ele>2290.5</ele>
        <time>1970-01-01T01:00:00</time>
      </trkpt>
      <trkpt lat="46.462996000" lon="11.632925000">
        <ele>2303.5</ele>
        <time>1970-01-01T01:00:00</time>
      </trkpt>
      <trkpt lat="46.463201000" lon="11.633052000">
        <ele>2309.7</ele>
        <time>1970-01-01T01:00:00</time>
      </trkpt>
      <trkpt lat="46.463449000" lon="11.633066000">
        <ele>2314.5</ele>
        <time>1970-01-01T01:00:00</time>
      </trkpt>
      <trkpt lat="46.463431000" lon="11.633232000">
        <ele>2317.4</ele>
        <time>1970-01-01T01:00:00</time>
      </trkpt>
      <trkpt lat="46.463834000" lon="11.633506000">
        <ele>2323.6</ele>
        <time>1970-01-01T01:00:00</time>
      </trkpt>
      <trkpt lat="46.463862000" lon="11.633578000">
        <ele>2325.1</ele>
        <time>1970-01-01T01:00:00</time>
      </trkpt>
      <trkpt lat="46.464108000" lon="11.633677000">
        <ele>2328.5</ele>
        <time>1970-01-01T01:00:00</time>
      </trkpt>
      <trkpt lat="46.464697000" lon="11.634033000">
        <ele>2336.1</ele>
        <time>1970-01-01T01:00:00</time>
      </trkpt>
      <trkpt lat="46.464929000" lon="11.634085000">
        <ele>2337.1</ele>
        <time>1970-01-01T01:00:00</time>
      </trkpt>
      <trkpt lat="46.465208000" lon="11.634082000">
        <ele>2340.9</ele>
        <time>1970-01-01T01:00:00</time>
      </trkpt>
      <trkpt lat="46.465539000" lon="11.633978000">
        <ele>2348.6</ele>
        <time>1970-01-01T01:00:00</time>
      </trkpt>
      <trkpt lat="46.465949000" lon="11.633977000">
        <ele>2352.0</ele>
        <time>1970-01-01T01:00:00</time>
      </trkpt>
      <trkpt lat="46.466182000" lon="11.634047000">
        <ele>2358.7</ele>
        <time>1970-01-01T01:00:00</time>
      </trkpt>
      <trkpt lat="46.466336000" lon="11.634120000">
        <ele>2359.2</ele>
        <time>1970-01-01T01:00:00</time>
      </trkpt>
      <trkpt lat="46.466933000" lon="11.634174000">
        <ele>2369.3</ele>
        <time>1970-01-01T01:00:00</time>
      </trkpt>
      <trkpt lat="46.467385000" lon="11.634279000">
        <ele>2377.0</ele>
        <time>1970-01-01T01:00:00</time>
      </trkpt>
      <trkpt lat="46.467745000" lon="11.634503000">
        <ele>2381.8</ele>
        <time>1970-01-01T01:00:00</time>
      </trkpt>
      <trkpt lat="46.467917000" lon="11.634742000">
        <ele>2384.7</ele>
        <time>1970-01-01T01:00:00</time>
      </trkpt>
      <trkpt lat="46.468112000" lon="11.634730000">
        <ele>2390.9</ele>
        <time>1970-01-01T01:00:00</time>
      </trkpt>
      <trkpt lat="46.468572000" lon="11.634935000">
        <ele>2399.1</ele>
        <time>1970-01-01T01:00:00</time>
      </trkpt>
      <trkpt lat="46.469049000" lon="11.634977000">
        <ele>2408.7</ele>
        <time>1970-01-01T01:00:00</time>
      </trkpt>
      <trkpt lat="46.469602000" lon="11.635641000">
        <ele>2427.0</ele>
        <time>1970-01-01T01:00:00</time>
      </trkpt>
      <trkpt lat="46.470624000" lon="11.636285000">
        <ele>2458.7</ele>
        <time>1970-01-01T01:00:00</time>
      </trkpt>
      <trkpt lat="46.470881000" lon="11.636370000">
        <ele>2468.8</ele>
        <time>1970-01-01T01:00:00</time>
      </trkpt>
      <trkpt lat="46.471069000" lon="11.636529000">
        <ele>2476.5</ele>
        <time>1970-01-01T01:00:00</time>
      </trkpt>
      <trkpt lat="46.471209000" lon="11.636528000">
        <ele>2479.9</ele>
        <time>1970-01-01T01:00:00</time>
      </trkpt>
      <trkpt lat="46.471379000" lon="11.636403000">
        <ele>2488.0</ele>
        <time>1970-01-01T01:00:00</time>
      </trkpt>
      <trkpt lat="46.471451000" lon="11.636462000">
        <ele>2491.4</ele>
        <time>1970-01-01T01:00:00</time>
      </trkpt>
      <trkpt lat="46.471500000" lon="11.636383000">
        <ele>2492.8</ele>
        <time>1970-01-01T01:00:00</time>
      </trkpt>
      <trkpt lat="46.471415000" lon="11.636087000">
        <ele>2497.6</ele>
        <time>1970-01-01T01:00:00</time>
      </trkpt>
      <trkpt lat="46.471715000" lon="11.635353000">
        <ele>2509.2</ele>
        <time>1970-01-01T01:00:00</time>
      </trkpt>
      <trkpt lat="46.471830000" lon="11.634873000">
        <ele>2516.4</ele>
        <time>1970-01-01T01:00:00</time>
      </trkpt>
      <trkpt lat="46.471879000" lon="11.634149000">
        <ele>2527.9</ele>
        <time>1970-01-01T01:00:00</time>
      </trkpt>
      <trkpt lat="46.471830000" lon="11.633850000">
        <ele>2535.6</ele>
        <time>1970-01-01T01:00:00</time>
      </trkpt>
      <trkpt lat="46.471840000" lon="11.633789000">
        <ele>2536.6</ele>
        <time>1970-01-01T01:00:00</time>
      </trkpt>
      <trkpt lat="46.471939000" lon="11.633802000">
        <ele>2539.5</ele>
        <time>1970-01-01T01:00:00</time>
      </trkpt>
      <trkpt lat="46.471851000" lon="11.633563000">
        <ele>2546.7</ele>
        <time>1970-01-01T01:00:00</time>
      </trkpt>
      <trkpt lat="46.471998000" lon="11.633585000">
        <ele>2551.0</ele>
        <time>1970-01-01T01:00:00</time>
      </trkpt>
      <trkpt lat="46.471870000" lon="11.633316000">
        <ele>2559.2</ele>
        <time>1970-01-01T01:00:00</time>
      </trkpt>
      <trkpt lat="46.472155000" lon="11.633341000">
        <ele>2566.9</ele>
        <time>1970-01-01T01:00:00</time>
      </trkpt>
      <trkpt lat="46.472051000" lon="11.633185000">
        <ele>2573.6</ele>
        <time>1970-01-01T01:00:00</time>
      </trkpt>
      <trkpt lat="46.472270000" lon="11.633231000">
        <ele>2579.8</ele>
        <time>1970-01-01T01:00:00</time>
      </trkpt>
      <trkpt lat="46.472372000" lon="11.633354000">
        <ele>2585.6</ele>
        <time>1970-01-01T01:00:00</time>
      </trkpt>
      <trkpt lat="46.472425000" lon="11.633214000">
        <ele>2589.0</ele>
        <time>1970-01-01T01:00:00</time>
      </trkpt>
      <trkpt lat="46.472264000" lon="11.632812000">
        <ele>2600.5</ele>
        <time>1970-01-01T01:00:00</time>
      </trkpt>
      <trkpt lat="46.472506000" lon="11.632853000">
        <ele>2607.2</ele>
        <time>1970-01-01T01:00:00</time>
      </trkpt>
      <trkpt lat="46.472355000" lon="11.632566000">
        <ele>2615.9</ele>
        <time>1970-01-01T01:00:00</time>
      </trkpt>
      <trkpt lat="46.472661000" lon="11.632633000">
        <ele>2625.5</ele>
        <time>1970-01-01T01:00:00</time>
      </trkpt>
      <trkpt lat="46.472665000" lon="11.632591000">
        <ele>2626.9</ele>
        <time>1970-01-01T01:00:00</time>
      </trkpt>
      <trkpt lat="46.472539000" lon="11.632253000">
        <ele>2636.1</ele>
        <time>1970-01-01T01:00:00</time>
      </trkpt>
      <trkpt lat="46.472614000" lon="11.632288000">
        <ele>2638.0</ele>
        <time>1970-01-01T01:00:00</time>
      </trkpt>
      <trkpt lat="46.472631000" lon="11.632315000">
        <ele>2638.5</ele>
        <time>1970-01-01T01:00:00</time>
      </trkpt>
      <trkpt lat="46.472620000" lon="11.632346000">
        <ele>2633.2</ele>
        <time>1970-01-01T01:00:00</time>
      </trkpt>
      <trkpt lat="46.472608000" lon="11.632289000">
        <ele>2636.1</ele>
        <time>1970-01-01T01:00:00</time>
      </trkpt>
      <trkpt lat="46.472767000" lon="11.632291000">
        <ele>2633.7</ele>
        <time>1970-01-01T01:00:00</time>
      </trkpt>
      <trkpt lat="46.472784000" lon="11.632203000">
        <ele>2628.9</ele>
        <time>1970-01-01T01:00:00</time>
      </trkpt>
      <trkpt lat="46.472845000" lon="11.632222000">
        <ele>2626.9</ele>
        <time>1970-01-01T01:00:00</time>
      </trkpt>
      <trkpt lat="46.472913000" lon="11.632145000">
        <ele>2622.6</ele>
        <time>1970-01-01T01:00:00</time>
      </trkpt>
      <trkpt lat="46.473090000" lon="11.631812000">
        <ele>2602.4</ele>
        <time>1970-01-01T01:00:00</time>
      </trkpt>
      <trkpt lat="46.473045000" lon="11.631662000">
        <ele>2594.3</ele>
        <time>1970-01-01T01:00:00</time>
      </trkpt>
      <trkpt lat="46.472997000" lon="11.631720000">
        <ele>2593.8</ele>
        <time>1970-01-01T01:00:00</time>
      </trkpt>
      <trkpt lat="46.472997000" lon="11.631641000">
        <ele>2591.4</ele>
        <time>1970-01-01T01:00:00</time>
      </trkpt>
      <trkpt lat="46.473118000" lon="11.631336000">
        <ele>2572.6</ele>
        <time>1970-01-01T01:00:00</time>
      </trkpt>
      <trkpt lat="46.473370000" lon="11.631159000">
        <ele>2552.4</ele>
        <time>1970-01-01T01:00:00</time>
      </trkpt>
      <trkpt lat="46.473438000" lon="11.631028000">
        <ele>2542.8</ele>
        <time>1970-01-01T01:00:00</time>
      </trkpt>
      <trkpt lat="46.473420000" lon="11.631067000">
        <ele>2542.8</ele>
        <time>1970-01-01T01:00:00</time>
      </trkpt>
      <trkpt lat="46.473481000" lon="11.631046000">
        <ele>2542.3</ele>
        <time>1970-01-01T01:00:00</time>
      </trkpt>
      <trkpt lat="46.473614000" lon="11.630907000">
        <ele>2535.6</ele>
        <time>1970-01-01T01:00:00</time>
      </trkpt>
      <trkpt lat="46.473884000" lon="11.630501000">
        <ele>2509.7</ele>
        <time>1970-01-01T01:00:00</time>
      </trkpt>
      <trkpt lat="46.474151000" lon="11.630168000">
        <ele>2480.3</ele>
        <time>1970-01-01T01:00:00</time>
      </trkpt>
      <trkpt lat="46.474290000" lon="11.629795000">
        <ele>2462.1</ele>
        <time>1970-01-01T01:00:00</time>
      </trkpt>
      <trkpt lat="46.474264000" lon="11.629695000">
        <ele>2461.1</ele>
        <time>1970-01-01T01:00:00</time>
      </trkpt>
      <trkpt lat="46.474346000" lon="11.629629000">
        <ele>2461.6</ele>
        <time>1970-01-01T01:00:00</time>
      </trkpt>
      <trkpt lat="46.474540000" lon="11.629255000">
        <ele>2448.6</ele>
        <time>1970-01-01T01:00:00</time>
      </trkpt>
      <trkpt lat="46.474707000" lon="11.628554000">
        <ele>2427.0</ele>
        <time>1970-01-01T01:00:00</time>
      </trkpt>
      <trkpt lat="46.474781000" lon="11.628196000">
        <ele>2412.6</ele>
        <time>1970-01-01T01:00:00</time>
      </trkpt>
      <trkpt lat="46.474765000" lon="11.628214000">
        <ele>2410.2</ele>
        <time>1970-01-01T01:00:00</time>
      </trkpt>
      <trkpt lat="46.474834000" lon="11.628086000">
        <ele>2406.8</ele>
        <time>1970-01-01T01:00:00</time>
      </trkpt>
      <trkpt lat="46.474877000" lon="11.627695000">
        <ele>2392.9</ele>
        <time>1970-01-01T01:00:00</time>
      </trkpt>
      <trkpt lat="46.474925000" lon="11.627016000">
        <ele>2379.9</ele>
        <time>1970-01-01T01:00:00</time>
      </trkpt>
      <trkpt lat="46.474883000" lon="11.626633000">
        <ele>2372.7</ele>
        <time>1970-01-01T01:00:00</time>
      </trkpt>
      <trkpt lat="46.475558000" lon="11.625100000">
        <ele>2328.0</ele>
        <time>1970-01-01T01:00:00</time>
      </trkpt>
      <trkpt lat="46.475556000" lon="11.625026000">
        <ele>2326.0</ele>
        <time>1970-01-01T01:00:00</time>
      </trkpt>
      <trkpt lat="46.475467000" lon="11.625074000">
        <ele>2326.0</ele>
        <time>1970-01-01T01:00:00</time>
      </trkpt>
      <trkpt lat="46.475427000" lon="11.624692000">
        <ele>2321.7</ele>
        <time>1970-01-01T01:00:00</time>
      </trkpt>
      <trkpt lat="46.475469000" lon="11.624279000">
        <ele>2312.6</ele>
        <time>1970-01-01T01:00:00</time>
      </trkpt>
      <trkpt lat="46.475847000" lon="11.623786000">
        <ele>2291.4</ele>
        <time>1970-01-01T01:00:00</time>
      </trkpt>
      <trkpt lat="46.476239000" lon="11.623644000">
        <ele>2273.7</ele>
        <time>1970-01-01T01:00:00</time>
      </trkpt>
      <trkpt lat="46.476461000" lon="11.623458000">
        <ele>2265.0</ele>
        <time>1970-01-01T01:00:00</time>
      </trkpt>
      <trkpt lat="46.476654000" lon="11.623186000">
        <ele>2259.7</ele>
        <time>1970-01-01T01:00:00</time>
      </trkpt>
      <trkpt lat="46.476800000" lon="11.623135000">
        <ele>2255.9</ele>
        <time>1970-01-01T01:00:00</time>
      </trkpt>
      <trkpt lat="46.476957000" lon="11.622971000">
        <ele>2252.0</ele>
        <time>1970-01-01T01:00:00</time>
      </trkpt>
      <trkpt lat="46.477018000" lon="11.622850000">
        <ele>2251.1</ele>
        <time>1970-01-01T01:00:00</time>
      </trkpt>
      <trkpt lat="46.476984000" lon="11.622816000">
        <ele>2251.1</ele>
        <time>1970-01-01T01:00:00</time>
      </trkpt>
      <trkpt lat="46.477040000" lon="11.622561000">
        <ele>2248.2</ele>
        <time>1970-01-01T01:00:00</time>
      </trkpt>
      <trkpt lat="46.477327000" lon="11.622287000">
        <ele>2235.2</ele>
        <time>1970-01-01T01:00:00</time>
      </trkpt>
      <trkpt lat="46.477480000" lon="11.621954000">
        <ele>2227.5</ele>
        <time>1970-01-01T01:00:00</time>
      </trkpt>
      <trkpt lat="46.477456000" lon="11.621894000">
        <ele>2226.6</ele>
        <time>1970-01-01T01:00:00</time>
      </trkpt>
      <trkpt lat="46.477527000" lon="11.621763000">
        <ele>2225.6</ele>
        <time>1970-01-01T01:00:00</time>
      </trkpt>
      <trkpt lat="46.477649000" lon="11.621062000">
        <ele>2219.8</ele>
        <time>1970-01-01T01:00:00</time>
      </trkpt>
      <trkpt lat="46.478285000" lon="11.619935000">
        <ele>2195.3</ele>
        <time>1970-01-01T01:00:00</time>
      </trkpt>
      <trkpt lat="46.478644000" lon="11.619449000">
        <ele>2183.3</ele>
        <time>1970-01-01T01:00:00</time>
      </trkpt>
      <trkpt lat="46.478687000" lon="11.619149000">
        <ele>2180.9</ele>
        <time>1970-01-01T01:00:00</time>
      </trkpt>
      <trkpt lat="46.478884000" lon="11.619141000">
        <ele>2170.8</ele>
        <time>1970-01-01T01:00:00</time>
      </trkpt>
      <trkpt lat="46.479023000" lon="11.619080000">
        <ele>2164.1</ele>
        <time>1970-01-01T01:00:00</time>
      </trkpt>
      <trkpt lat="46.479092000" lon="11.618978000">
        <ele>2158.3</ele>
        <time>1970-01-01T01:00:00</time>
      </trkpt>
      <trkpt lat="46.479190000" lon="11.618983000">
        <ele>2155.4</ele>
        <time>1970-01-01T01:00:00</time>
      </trkpt>
      <trkpt lat="46.479241000" lon="11.619030000">
        <ele>2155.4</ele>
        <time>1970-01-01T01:00:00</time>
      </trkpt>
      <trkpt lat="46.479364000" lon="11.618630000">
        <ele>2142.4</ele>
        <time>1970-01-01T01:00:00</time>
      </trkpt>
      <trkpt lat="46.479492000" lon="11.618477000">
        <ele>2135.2</ele>
        <time>1970-01-01T01:00:00</time>
      </trkpt>
      <trkpt lat="46.479466000" lon="11.618163000">
        <ele>2132.3</ele>
        <time>1970-01-01T01:00:00</time>
      </trkpt>
      <trkpt lat="46.479797000" lon="11.617861000">
        <ele>2117.4</ele>
        <time>1970-01-01T01:00:00</time>
      </trkpt>
      <trkpt lat="46.479797000" lon="11.617790000">
        <ele>2115.0</ele>
        <time>1970-01-01T01:00:00</time>
      </trkpt>
      <trkpt lat="46.479895000" lon="11.617839000">
        <ele>2109.8</ele>
        <time>1970-01-01T01:00:00</time>
      </trkpt>
      <trkpt lat="46.479968000" lon="11.617646000">
        <ele>2103.5</ele>
        <time>1970-01-01T01:00:00</time>
      </trkpt>
      <trkpt lat="46.480409000" lon="11.617424000">
        <ele>2078.0</ele>
        <time>1970-01-01T01:00:00</time>
      </trkpt>
      <trkpt lat="46.480467000" lon="11.617283000">
        <ele>2071.3</ele>
        <time>1970-01-01T01:00:00</time>
      </trkpt>
      <trkpt lat="46.480699000" lon="11.617030000">
        <ele>2055.0</ele>
        <time>1970-01-01T01:00:00</time>
      </trkpt>
      <trkpt lat="46.480727000" lon="11.616928000">
        <ele>2050.6</ele>
        <time>1970-01-01T01:00:00</time>
      </trkpt>
      <trkpt lat="46.480656000" lon="11.617020000">
        <ele>2049.2</ele>
        <time>1970-01-01T01:00:00</time>
      </trkpt>
      <trkpt lat="46.480658000" lon="11.616684000">
        <ele>2043.9</ele>
        <time>1970-01-01T01:00:00</time>
      </trkpt>
      <trkpt lat="46.480716000" lon="11.616654000">
        <ele>2039.1</ele>
        <time>1970-01-01T01:00:00</time>
      </trkpt>
      <trkpt lat="46.480745000" lon="11.616380000">
        <ele>2033.8</ele>
        <time>1970-01-01T01:00:00</time>
      </trkpt>
      <trkpt lat="46.481444000" lon="11.615177000">
        <ele>1993.0</ele>
        <time>1970-01-01T01:00:00</time>
      </trkpt>
      <trkpt lat="46.481649000" lon="11.615058000">
        <ele>1983.8</ele>
        <time>1970-01-01T01:00:00</time>
      </trkpt>
      <trkpt lat="46.481494000" lon="11.615074000">
        <ele>1984.3</ele>
        <time>1970-01-01T01:00:00</time>
      </trkpt>
      <trkpt lat="46.481492000" lon="11.614721000">
        <ele>1980.5</ele>
        <time>1970-01-01T01:00:00</time>
      </trkpt>
      <trkpt lat="46.481391000" lon="11.613561000">
        <ele>1974.7</ele>
        <time>1970-01-01T01:00:00</time>
      </trkpt>
      <trkpt lat="46.481434000" lon="11.613466000">
        <ele>1972.8</ele>
        <time>1970-01-01T01:00:00</time>
      </trkpt>
      <trkpt lat="46.481571000" lon="11.613270000">
        <ele>1962.2</ele>
        <time>1970-01-01T01:00:00</time>
      </trkpt>
      <trkpt lat="46.481838000" lon="11.613034000">
        <ele>1951.6</ele>
        <time>1970-01-01T01:00:00</time>
      </trkpt>
      <trkpt lat="46.482171000" lon="11.612515000">
        <ele>1942.0</ele>
        <time>1970-01-01T01:00:00</time>
      </trkpt>
      <trkpt lat="46.482295000" lon="11.612518000">
        <ele>1937.7</ele>
        <time>1970-01-01T01:00:00</time>
      </trkpt>
      <trkpt lat="46.482376000" lon="11.612462000">
        <ele>1928.1</ele>
        <time>1970-01-01T01:00:00</time>
      </trkpt>
      <trkpt lat="46.482417000" lon="11.612364000">
        <ele>1922.8</ele>
        <time>1970-01-01T01:00:00</time>
      </trkpt>
      <trkpt lat="46.482489000" lon="11.612381000">
        <ele>1919.4</ele>
        <time>1970-01-01T01:00:00</time>
      </trkpt>
      <trkpt lat="46.482555000" lon="11.612278000">
        <ele>1913.6</ele>
        <time>1970-01-01T01:00:00</time>
      </trkpt>
      <trkpt lat="46.482582000" lon="11.612134000">
        <ele>1904.0</ele>
        <time>1970-01-01T01:00:00</time>
      </trkpt>
      <trkpt lat="46.482650000" lon="11.612118000">
        <ele>1899.7</ele>
        <time>1970-01-01T01:00:00</time>
      </trkpt>
      <trkpt lat="46.482658000" lon="11.612021000">
        <ele>1895.4</ele>
        <time>1970-01-01T01:00:00</time>
      </trkpt>
      <trkpt lat="46.482870000" lon="11.612085000">
        <ele>1890.6</ele>
        <time>1970-01-01T01:00:00</time>
      </trkpt>
      <trkpt lat="46.482996000" lon="11.611771000">
        <ele>1871.3</ele>
        <time>1970-01-01T01:00:00</time>
      </trkpt>
      <trkpt lat="46.483089000" lon="11.611717000">
        <ele>1863.7</ele>
        <time>1970-01-01T01:00:00</time>
      </trkpt>
      <trkpt lat="46.483046000" lon="11.611642000">
        <ele>1862.2</ele>
        <time>1970-01-01T01:00:00</time>
      </trkpt>
      <trkpt lat="46.483256000" lon="11.611696000">
        <ele>1854.5</ele>
        <time>1970-01-01T01:00:00</time>
      </trkpt>
      <trkpt lat="46.483374000" lon="11.611549000">
        <ele>1845.4</ele>
        <time>1970-01-01T01:00:00</time>
      </trkpt>
      <trkpt lat="46.483693000" lon="11.611501000">
        <ele>1831.4</ele>
        <time>1970-01-01T01:00:00</time>
      </trkpt>
      <trkpt lat="46.483925000" lon="11.611376000">
        <ele>1822.3</ele>
        <time>1970-01-01T01:00:00</time>
      </trkpt>
      <trkpt lat="46.483935000" lon="11.611403000">
        <ele>1821.8</ele>
        <time>1970-01-01T01:00:00</time>
      </trkpt>
      <trkpt lat="46.483971000" lon="11.611281000">
        <ele>1819.4</ele>
        <time>1970-01-01T01:00:00</time>
      </trkpt>
      <trkpt lat="46.484378000" lon="11.610796000">
        <ele>1796.8</ele>
        <time>1970-01-01T01:00:00</time>
      </trkpt>
      <trkpt lat="46.484635000" lon="11.610699000">
        <ele>1787.2</ele>
        <time>1970-01-01T01:00:00</time>
      </trkpt>
      <trkpt lat="46.484851000" lon="11.610521000">
        <ele>1779.1</ele>
        <time>1970-01-01T01:00:00</time>
      </trkpt>
      <trkpt lat="46.484845000" lon="11.610348000">
        <ele>1773.8</ele>
        <time>1970-01-01T01:00:00</time>
      </trkpt>
      <trkpt lat="46.485165000" lon="11.609929000">
        <ele>1759.8</ele>
        <time>1970-01-01T01:00:00</time>
      </trkpt>
      <trkpt lat="46.485331000" lon="11.609897000">
        <ele>1753.6</ele>
        <time>1970-01-01T01:00:00</time>
      </trkpt>
      <trkpt lat="46.485378000" lon="11.609828000">
        <ele>1750.2</ele>
        <time>1970-01-01T01:00:00</time>
      </trkpt>
      <trkpt lat="46.485441000" lon="11.609899000">
        <ele>1747.8</ele>
        <time>1970-01-01T01:00:00</time>
      </trkpt>
      <trkpt lat="46.485598000" lon="11.609890000">
        <ele>1743.5</ele>
        <time>1970-01-01T01:00:00</time>
      </trkpt>
      <trkpt lat="46.485647000" lon="11.609796000">
        <ele>1741.6</ele>
        <time>1970-01-01T01:00:00</time>
      </trkpt>
      <trkpt lat="46.485866000" lon="11.609756000">
        <ele>1732.9</ele>
        <time>1970-01-01T01:00:00</time>
      </trkpt>
      <trkpt lat="46.485928000" lon="11.609625000">
        <ele>1729.1</ele>
        <time>1970-01-01T01:00:00</time>
      </trkpt>
      <trkpt lat="46.486262000" lon="11.609481000">
        <ele>1719.0</ele>
        <time>1970-01-01T01:00:00</time>
      </trkpt>
      <trkpt lat="46.486424000" lon="11.609174000">
        <ele>1710.8</ele>
        <time>1970-01-01T01:00:00</time>
      </trkpt>
      <trkpt lat="46.486559000" lon="11.609252000">
        <ele>1707.4</ele>
        <time>1970-01-01T01:00:00</time>
      </trkpt>
      <trkpt lat="46.486840000" lon="11.609109000">
        <ele>1697.3</ele>
        <time>1970-01-01T01:00:00</time>
      </trkpt>
      <trkpt lat="46.486949000" lon="11.609136000">
        <ele>1694.0</ele>
        <time>1970-01-01T01:00:00</time>
      </trkpt>
      <trkpt lat="46.487023000" lon="11.609243000">
        <ele>1691.6</ele>
        <time>1970-01-01T01:00:00</time>
      </trkpt>
      <trkpt lat="46.487254000" lon="11.608951000">
        <ele>1682.4</ele>
        <time>1970-01-01T01:00:00</time>
      </trkpt>
      <trkpt lat="46.487269000" lon="11.608737000">
        <ele>1679.1</ele>
        <time>1970-01-01T01:00:00</time>
      </trkpt>
      <trkpt lat="46.487395000" lon="11.608462000">
        <ele>1672.4</ele>
        <time>1970-01-01T01:00:00</time>
      </trkpt>
      <trkpt lat="46.487445000" lon="11.607799000">
        <ele>1660.8</ele>
        <time>1970-01-01T01:00:00</time>
      </trkpt>
      <trkpt lat="46.487529000" lon="11.607398000">
        <ele>1655.0</ele>
        <time>1970-01-01T01:00:00</time>
      </trkpt>
      <trkpt lat="46.487582000" lon="11.607354000">
        <ele>1653.1</ele>
        <time>1970-01-01T01:00:00</time>
      </trkpt>
      <trkpt lat="46.487659000" lon="11.607100000">
        <ele>1650.2</ele>
        <time>1970-01-01T01:00:00</time>
      </trkpt>
      <trkpt lat="46.487966000" lon="11.606559000">
        <ele>1646.4</ele>
        <time>1970-01-01T01:00:00</time>
      </trkpt>
      <trkpt lat="46.488065000" lon="11.606298000">
        <ele>1646.4</ele>
        <time>1970-01-01T01:00:00</time>
      </trkpt>
      <trkpt lat="46.488247000" lon="11.605361000">
        <ele>1635.8</ele>
        <time>1970-01-01T01:00:00</time>
      </trkpt>
      <trkpt lat="46.488086000" lon="11.604175000">
        <ele>1624.8</ele>
        <time>1970-01-01T01:00:00</time>
      </trkpt>
      <trkpt lat="46.488145000" lon="11.604119000">
        <ele>1623.8</ele>
        <time>1970-01-01T01:00:00</time>
      </trkpt>
      <trkpt lat="46.488128000" lon="11.603726000">
        <ele>1620.4</ele>
        <time>1970-01-01T01:00:00</time>
      </trkpt>
      <trkpt lat="46.488188000" lon="11.603541000">
        <ele>1614.7</ele>
        <time>1970-01-01T01:00:00</time>
      </trkpt>
      <trkpt lat="46.488249000" lon="11.602857000">
        <ele>1610.3</ele>
        <time>1970-01-01T01:00:00</time>
      </trkpt>
      <trkpt lat="46.488293000" lon="11.602800000">
        <ele>1608.9</ele>
        <time>1970-01-01T01:00:00</time>
      </trkpt>
      <trkpt lat="46.488261000" lon="11.602366000">
        <ele>1605.5</ele>
        <time>1970-01-01T01:00:00</time>
      </trkpt>
      <trkpt lat="46.488338000" lon="11.602093000">
        <ele>1604.6</ele>
        <time>1970-01-01T01:00:00</time>
      </trkpt>
      <trkpt lat="46.488351000" lon="11.601397000">
        <ele>1602.2</ele>
        <time>1970-01-01T01:00:00</time>
      </trkpt>
      <trkpt lat="46.488340000" lon="11.601219000">
        <ele>1603.1</ele>
        <time>1970-01-01T01:00:00</time>
      </trkpt>
      <trkpt lat="46.488246000" lon="11.600975000">
        <ele>1601.7</ele>
        <time>1970-01-01T01:00:00</time>
      </trkpt>
      <trkpt lat="46.488313000" lon="11.600671000">
        <ele>1601.7</ele>
        <time>1970-01-01T01:00:00</time>
      </trkpt>
      <trkpt lat="46.488350000" lon="11.600656000">
        <ele>1605.5</ele>
        <time>1970-01-01T01:00:00</time>
      </trkpt>
      <trkpt lat="46.488137000" lon="11.600361000">
        <ele>1603.6</ele>
        <time>1970-01-01T01:00:00</time>
      </trkpt>
      <trkpt lat="46.488158000" lon="11.599941000">
        <ele>1602.2</ele>
        <time>1970-01-01T01:00:00</time>
      </trkpt>
      <trkpt lat="46.488108000" lon="11.599741000">
        <ele>1603.1</ele>
        <time>1970-01-01T01:00:00</time>
      </trkpt>
      <trkpt lat="46.488150000" lon="11.599058000">
        <ele>1601.2</ele>
        <time>1970-01-01T01:00:00</time>
      </trkpt>
      <trkpt lat="46.488107000" lon="11.598424000">
        <ele>1600.7</ele>
        <time>1970-01-01T01:00:00</time>
      </trkpt>
      <trkpt lat="46.488155000" lon="11.598070000">
        <ele>1598.3</ele>
        <time>1970-01-01T01:00:00</time>
      </trkpt>
      <trkpt lat="46.488180000" lon="11.597207000">
        <ele>1591.1</ele>
        <time>1970-01-01T01:00:00</time>
      </trkpt>
      <trkpt lat="46.488552000" lon="11.595716000">
        <ele>1580.5</ele>
        <time>1970-01-01T01:00:00</time>
      </trkpt>
      <trkpt lat="46.488830000" lon="11.594696000">
        <ele>1567.1</ele>
        <time>1970-01-01T01:00:00</time>
      </trkpt>
      <trkpt lat="46.488858000" lon="11.594435000">
        <ele>1564.7</ele>
        <time>1970-01-01T01:00:00</time>
      </trkpt>
      <trkpt lat="46.488857000" lon="11.594151000">
        <ele>1561.8</ele>
        <time>1970-01-01T01:00:00</time>
      </trkpt>
      <trkpt lat="46.488642000" lon="11.593451000">
        <ele>1553.1</ele>
        <time>1970-01-01T01:00:00</time>
      </trkpt>
      <trkpt lat="46.488496000" lon="11.593168000">
        <ele>1551.7</ele>
        <time>1970-01-01T01:00:00</time>
      </trkpt>
      <trkpt lat="46.488538000" lon="11.592518000">
        <ele>1546.9</ele>
        <time>1970-01-01T01:00:00</time>
      </trkpt>
      <trkpt lat="46.488706000" lon="11.591425000">
        <ele>1540.2</ele>
        <time>1970-01-01T01:00:00</time>
      </trkpt>
      <trkpt lat="46.488694000" lon="11.590637000">
        <ele>1532.5</ele>
        <time>1970-01-01T01:00:00</time>
      </trkpt>
      <trkpt lat="46.488515000" lon="11.589955000">
        <ele>1520.5</ele>
        <time>1970-01-01T01:00:00</time>
      </trkpt>
      <trkpt lat="46.488302000" lon="11.589820000">
        <ele>1514.2</ele>
        <time>1970-01-01T01:00:00</time>
      </trkpt>
      <trkpt lat="46.488011000" lon="11.589074000">
        <ele>1503.2</ele>
        <time>1970-01-01T01:00:00</time>
      </trkpt>
      <trkpt lat="46.487661000" lon="11.589018000">
        <ele>1495.0</ele>
        <time>1970-01-01T01:00:00</time>
      </trkpt>
      <trkpt lat="46.487603000" lon="11.588900000">
        <ele>1494.5</ele>
        <time>1970-01-01T01:00:00</time>
      </trkpt>
      <trkpt lat="46.487457000" lon="11.588800000">
        <ele>1492.6</ele>
        <time>1970-01-01T01:00:00</time>
      </trkpt>
      <trkpt lat="46.487236000" lon="11.588241000">
        <ele>1490.2</ele>
        <time>1970-01-01T01:00:00</time>
      </trkpt>
      <trkpt lat="46.487211000" lon="11.587608000">
        <ele>1484.9</ele>
        <time>1970-01-01T01:00:00</time>
      </trkpt>
      <trkpt lat="46.487048000" lon="11.586250000">
        <ele>1479.1</ele>
        <time>1970-01-01T01:00:00</time>
      </trkpt>
      <trkpt lat="46.487032000" lon="11.585666000">
        <ele>1476.7</ele>
        <time>1970-01-01T01:00:00</time>
      </trkpt>
      <trkpt lat="46.486784000" lon="11.584888000">
        <ele>1473.4</ele>
        <time>1970-01-01T01:00:00</time>
      </trkpt>
      <trkpt lat="46.486758000" lon="11.584542000">
        <ele>1471.9</ele>
        <time>1970-01-01T01:00:00</time>
      </trkpt>
      <trkpt lat="46.486848000" lon="11.584107000">
        <ele>1472.9</ele>
        <time>1970-01-01T01:00:00</time>
      </trkpt>
      <trkpt lat="46.486810000" lon="11.584122000">
        <ele>1472.9</ele>
        <time>1970-01-01T01:00:00</time>
      </trkpt>
      <trkpt lat="46.486760000" lon="11.583827000">
        <ele>1471.9</ele>
        <time>1970-01-01T01:00:00</time>
      </trkpt>
      <trkpt lat="46.486495000" lon="11.583463000">
        <ele>1466.6</ele>
        <time>1970-01-01T01:00:00</time>
      </trkpt>
      <trkpt lat="46.486353000" lon="11.583116000">
        <ele>1464.7</ele>
        <time>1970-01-01T01:00:00</time>
      </trkpt>
      <trkpt lat="46.486355000" lon="11.582882000">
        <ele>1463.7</ele>
        <time>1970-01-01T01:00:00</time>
      </trkpt>
      <trkpt lat="46.486316000" lon="11.582885000">
        <ele>1464.2</ele>
        <time>1970-01-01T01:00:00</time>
      </trkpt>
      <trkpt lat="46.486278000" lon="11.582765000">
        <ele>1464.2</ele>
        <time>1970-01-01T01:00:00</time>
      </trkpt>
      <trkpt lat="46.485921000" lon="11.582167000">
        <ele>1455.6</ele>
        <time>1970-01-01T01:00:00</time>
      </trkpt>
      <trkpt lat="46.485775000" lon="11.581711000">
        <ele>1449.3</ele>
        <time>1970-01-01T01:00:00</time>
      </trkpt>
      <trkpt lat="46.485637000" lon="11.581408000">
        <ele>1447.9</ele>
        <time>1970-01-01T01:00:00</time>
      </trkpt>
      <trkpt lat="46.485442000" lon="11.580649000">
        <ele>1440.2</ele>
        <time>1970-01-01T01:00:00</time>
      </trkpt>
      <trkpt lat="46.485261000" lon="11.580253000">
        <ele>1439.7</ele>
        <time>1970-01-01T01:00:00</time>
      </trkpt>
      <trkpt lat="46.485170000" lon="11.579578000">
        <ele>1430.6</ele>
        <time>1970-01-01T01:00:00</time>
      </trkpt>
      <trkpt lat="46.484889000" lon="11.579071000">
        <ele>1425.8</ele>
        <time>1970-01-01T01:00:00</time>
      </trkpt>
      <trkpt lat="46.484881000" lon="11.578740000">
        <ele>1424.8</ele>
        <time>1970-01-01T01:00:00</time>
      </trkpt>
      <trkpt lat="46.484924000" lon="11.578529000">
        <ele>1425.3</ele>
        <time>1970-01-01T01:00:00</time>
      </trkpt>
      <trkpt lat="46.484898000" lon="11.578044000">
        <ele>1426.7</ele>
        <time>1970-01-01T01:00:00</time>
      </trkpt>
      <trkpt lat="46.484985000" lon="11.577888000">
        <ele>1427.7</ele>
        <time>1970-01-01T01:00:00</time>
      </trkpt>
      <trkpt lat="46.484971000" lon="11.577366000">
        <ele>1427.7</ele>
        <time>1970-01-01T01:00:00</time>
      </trkpt>
      <trkpt lat="46.484911000" lon="11.577208000">
        <ele>1428.2</ele>
        <time>1970-01-01T01:00:00</time>
      </trkpt>
      <trkpt lat="46.484950000" lon="11.576935000">
        <ele>1430.1</ele>
        <time>1970-01-01T01:00:00</time>
      </trkpt>
      <trkpt lat="46.484906000" lon="11.576672000">
        <ele>1429.1</ele>
        <time>1970-01-01T01:00:00</time>
      </trkpt>
      <trkpt lat="46.484918000" lon="11.576073000">
        <ele>1426.7</ele>
        <time>1970-01-01T01:00:00</time>
      </trkpt>
      <trkpt lat="46.484833000" lon="11.575296000">
        <ele>1423.8</ele>
        <time>1970-01-01T01:00:00</time>
      </trkpt>
      <trkpt lat="46.484766000" lon="11.575084000">
        <ele>1422.4</ele>
        <time>1970-01-01T01:00:00</time>
      </trkpt>
      <trkpt lat="46.484316000" lon="11.574594000">
        <ele>1415.2</ele>
        <time>1970-01-01T01:00:00</time>
      </trkpt>
      <trkpt lat="46.484271000" lon="11.574446000">
        <ele>1414.2</ele>
        <time>1970-01-01T01:00:00</time>
      </trkpt>
      <trkpt lat="46.483870000" lon="11.573950000">
        <ele>1409.9</ele>
        <time>1970-01-01T01:00:00</time>
      </trkpt>
      <trkpt lat="46.483719000" lon="11.573584000">
        <ele>1409.4</ele>
        <time>1970-01-01T01:00:00</time>
      </trkpt>
      <trkpt lat="46.483701000" lon="11.573413000">
        <ele>1408.9</ele>
        <time>1970-01-01T01:00:00</time>
      </trkpt>
      <trkpt lat="46.483739000" lon="11.573362000">
        <ele>1409.4</ele>
        <time>1970-01-01T01:00:00</time>
      </trkpt>
      <trkpt lat="46.483500000" lon="11.572661000">
        <ele>1405.1</ele>
        <time>1970-01-01T01:00:00</time>
      </trkpt>
      <trkpt lat="46.482921000" lon="11.571861000">
        <ele>1401.7</ele>
        <time>1970-01-01T01:00:00</time>
      </trkpt>
      <trkpt lat="46.482710000" lon="11.571641000">
        <ele>1400.8</ele>
        <time>1970-01-01T01:00:00</time>
      </trkpt>
      <trkpt lat="46.482424000" lon="11.571498000">
        <ele>1400.3</ele>
        <time>1970-01-01T01:00:00</time>
      </trkpt>
      <trkpt lat="46.482317000" lon="11.571350000">
        <ele>1399.3</ele>
        <time>1970-01-01T01:00:00</time>
      </trkpt>
      <trkpt lat="46.482113000" lon="11.571331000">
        <ele>1397.9</ele>
        <time>1970-01-01T01:00:00</time>
      </trkpt>
      <trkpt lat="46.481903000" lon="11.571534000">
        <ele>1393.6</ele>
        <time>1970-01-01T01:00:00</time>
      </trkpt>
      <trkpt lat="46.481774000" lon="11.571768000">
        <ele>1391.2</ele>
        <time>1970-01-01T01:00:00</time>
      </trkpt>
      <trkpt lat="46.481637000" lon="11.571750000">
        <ele>1387.8</ele>
        <time>1970-01-01T01:00:00</time>
      </trkpt>
      <trkpt lat="46.481306000" lon="11.571355000">
        <ele>1381.6</ele>
        <time>1970-01-01T01:00:00</time>
      </trkpt>
      <trkpt lat="46.481023000" lon="11.570773000">
        <ele>1372.9</ele>
        <time>1970-01-01T01:00:00</time>
      </trkpt>
      <trkpt lat="46.480818000" lon="11.570625000">
        <ele>1369.5</ele>
        <time>1970-01-01T01:00:00</time>
      </trkpt>
      <trkpt lat="46.480645000" lon="11.570402000">
        <ele>1368.1</ele>
        <time>1970-01-01T01:00:00</time>
      </trkpt>
      <trkpt lat="46.479882000" lon="11.569888000">
        <ele>1363.8</ele>
        <time>1970-01-01T01:00:00</time>
      </trkpt>
      <trkpt lat="46.479842000" lon="11.569934000">
        <ele>1364.2</ele>
        <time>1970-01-01T01:00:00</time>
      </trkpt>
      <trkpt lat="46.478875000" lon="11.569683000">
        <ele>1364.2</ele>
        <time>1970-01-01T01:00:00</time>
      </trkpt>
      <trkpt lat="46.478732000" lon="11.569710000">
        <ele>1364.7</ele>
        <time>1970-01-01T01:00:00</time>
      </trkpt>
      <trkpt lat="46.478527000" lon="11.569529000">
        <ele>1364.7</ele>
        <time>1970-01-01T01:00:00</time>
      </trkpt>
      <trkpt lat="46.478511000" lon="11.569185000">
        <ele>1364.7</ele>
        <time>1970-01-01T01:00:00</time>
      </trkpt>
      <trkpt lat="46.478362000" lon="11.568967000">
        <ele>1363.8</ele>
        <time>1970-01-01T01:00:00</time>
      </trkpt>
      <trkpt lat="46.478066000" lon="11.568321000">
        <ele>1358.0</ele>
        <time>1970-01-01T01:00:00</time>
      </trkpt>
      <trkpt lat="46.477956000" lon="11.567569000">
        <ele>1351.8</ele>
        <time>1970-01-01T01:00:00</time>
      </trkpt>
      <trkpt lat="46.477742000" lon="11.566963000">
        <ele>1347.9</ele>
        <time>1970-01-01T01:00:00</time>
      </trkpt>
      <trkpt lat="46.477372000" lon="11.565376000">
        <ele>1335.9</ele>
        <time>1970-01-01T01:00:00</time>
      </trkpt>
      <trkpt lat="46.476962000" lon="11.564398000">
        <ele>1324.8</ele>
        <time>1970-01-01T01:00:00</time>
      </trkpt>
      <trkpt lat="46.476719000" lon="11.564223000">
        <ele>1321.5</ele>
        <time>1970-01-01T01:00:00</time>
      </trkpt>
      <trkpt lat="46.476212000" lon="11.564083000">
        <ele>1316.7</ele>
        <time>1970-01-01T01:00:00</time>
      </trkpt>
      <trkpt lat="46.476097000" lon="11.564090000">
        <ele>1317.1</ele>
        <time>1970-01-01T01:00:00</time>
      </trkpt>
      <trkpt lat="46.476015000" lon="11.564164000">
        <ele>1316.2</ele>
        <time>1970-01-01T01:00:00</time>
      </trkpt>
      <trkpt lat="46.475296000" lon="11.563719000">
        <ele>1309.0</ele>
        <time>1970-01-01T01:00:00</time>
      </trkpt>
      <trkpt lat="46.474831000" lon="11.563888000">
        <ele>1305.1</ele>
        <time>1970-01-01T01:00:00</time>
      </trkpt>
      <trkpt lat="46.474392000" lon="11.563977000">
        <ele>1303.2</ele>
        <time>1970-01-01T01:00:00</time>
      </trkpt>
      <trkpt lat="46.474217000" lon="11.564214000">
        <ele>1302.2</ele>
        <time>1970-01-01T01:00:00</time>
      </trkpt>
      <trkpt lat="46.474117000" lon="11.564509000">
        <ele>1300.3</ele>
        <time>1970-01-01T01:00:00</time>
      </trkpt>
      <trkpt lat="46.474125000" lon="11.564774000">
        <ele>1298.9</ele>
        <time>1970-01-01T01:00:00</time>
      </trkpt>
      <trkpt lat="46.474299000" lon="11.566119000">
        <ele>1286.4</ele>
        <time>1970-01-01T01:00:00</time>
      </trkpt>
      <trkpt lat="46.474336000" lon="11.566791000">
        <ele>1283.0</ele>
        <time>1970-01-01T01:00:00</time>
      </trkpt>
      <trkpt lat="46.474234000" lon="11.567381000">
        <ele>1279.2</ele>
        <time>1970-01-01T01:00:00</time>
      </trkpt>
      <trkpt lat="46.474252000" lon="11.567647000">
        <ele>1278.7</ele>
        <time>1970-01-01T01:00:00</time>
      </trkpt>
      <trkpt lat="46.473970000" lon="11.568785000">
        <ele>1272.4</ele>
        <time>1970-01-01T01:00:00</time>
      </trkpt>
      <trkpt lat="46.473813000" lon="11.569149000">
        <ele>1270.5</ele>
        <time>1970-01-01T01:00:00</time>
      </trkpt>
      <trkpt lat="46.473932000" lon="11.569645000">
        <ele>1266.7</ele>
        <time>1970-01-01T01:00:00</time>
      </trkpt>
      <trkpt lat="46.473902000" lon="11.569960000">
        <ele>1264.3</ele>
        <time>1970-01-01T01:00:00</time>
      </trkpt>
      <trkpt lat="46.473793000" lon="11.570234000">
        <ele>1261.4</ele>
        <time>1970-01-01T01:00:00</time>
      </trkpt>
      <trkpt lat="46.473701000" lon="11.570312000">
        <ele>1260.4</ele>
        <time>1970-01-01T01:00:00</time>
      </trkpt>
      <trkpt lat="46.473578000" lon="11.570336000">
        <ele>1259.0</ele>
        <time>1970-01-01T01:00:00</time>
      </trkpt>
      <trkpt lat="46.473068000" lon="11.570180000">
        <ele>1251.3</ele>
        <time>1970-01-01T01:00:00</time>
      </trkpt>
      <trkpt lat="46.472581000" lon="11.570269000">
        <ele>1247.0</ele>
        <time>1970-01-01T01:00:00</time>
      </trkpt>
      <trkpt lat="46.472448000" lon="11.570021000">
        <ele>1244.1</ele>
        <time>1970-01-01T01:00:00</time>
      </trkpt>
      <trkpt lat="46.472348000" lon="11.569536000">
        <ele>1237.8</ele>
        <time>1970-01-01T01:00:00</time>
      </trkpt>
      <trkpt lat="46.472173000" lon="11.569120000">
        <ele>1232.1</ele>
        <time>1970-01-01T01:00:00</time>
      </trkpt>
      <trkpt lat="46.472134000" lon="11.568900000">
        <ele>1229.2</ele>
        <time>1970-01-01T01:00:00</time>
      </trkpt>
      <trkpt lat="46.472070000" lon="11.567623000">
        <ele>1215.2</ele>
        <time>1970-01-01T01:00:00</time>
      </trkpt>
      <trkpt lat="46.472137000" lon="11.567158000">
        <ele>1209.5</ele>
        <time>1970-01-01T01:00:00</time>
      </trkpt>
      <trkpt lat="46.471988000" lon="11.566524000">
        <ele>1203.7</ele>
        <time>1970-01-01T01:00:00</time>
      </trkpt>
      <trkpt lat="46.471970000" lon="11.566097000">
        <ele>1199.4</ele>
        <time>1970-01-01T01:00:00</time>
      </trkpt>
      <trkpt lat="46.471761000" lon="11.565100000">
        <ele>1185.9</ele>
        <time>1970-01-01T01:00:00</time>
      </trkpt>
      <trkpt lat="46.471738000" lon="11.564436000">
        <ele>1180.2</ele>
        <time>1970-01-01T01:00:00</time>
      </trkpt>
      <trkpt lat="46.471692000" lon="11.564263000">
        <ele>1175.8</ele>
        <time>1970-01-01T01:00:00</time>
      </trkpt>
      <trkpt lat="46.471150000" lon="11.563187000">
        <ele>1162.4</ele>
        <time>1970-01-01T01:00:00</time>
      </trkpt>
      <trkpt lat="46.470911000" lon="11.562570000">
        <ele>1155.6</ele>
        <time>1970-01-01T01:00:00</time>
      </trkpt>
      <trkpt lat="46.470970000" lon="11.562544000">
        <ele>1151.3</ele>
        <time>1970-01-01T01:00:00</time>
      </trkpt>
      <trkpt lat="46.470868000" lon="11.561841000">
        <ele>1147.0</ele>
        <time>1970-01-01T01:00:00</time>
      </trkpt>
      <trkpt lat="46.470919000" lon="11.561673000">
        <ele>1146.0</ele>
        <time>1970-01-01T01:00:00</time>
      </trkpt>
      <trkpt lat="46.471017000" lon="11.561595000">
        <ele>1145.1</ele>
        <time>1970-01-01T01:00:00</time>
      </trkpt>
      <trkpt lat="46.471025000" lon="11.561565000">
        <ele>1145.1</ele>
        <time>1970-01-01T01:00:00</time>
      </trkpt>
      <trkpt lat="46.470985000" lon="11.561585000">
        <ele>1145.1</ele>
        <time>1970-01-01T01:00:00</time>
      </trkpt>
      <trkpt lat="46.471036000" lon="11.561571000">
        <ele>1145.5</ele>
        <time>1970-01-01T01:00:00</time>
      </trkpt>
      <trkpt lat="46.471085000" lon="11.561645000">
        <ele>1145.5</ele>
        <time>1970-01-01T01:00:00</time>
      </trkpt>
    </trkseg>
  </trk>
</gpx>
